SCP
0 0 0 0 0 0 0 0 0 0 0 0 0 0 0 0 0 0 0 0 0 0 0 0 0 0 0 0 0 0 0 0 0 0 0 0 0 0 0 0 0 0 0
0 0 0 0 0 0 0 0 0 0 0 0 0 0 0 0 0 0 0 0 0 0 0 0 0 0 0 0 0 0 0 0 0 0 0 0 0 0 0 0 0 0 0
0 0 0 0 0 0 0 0 0 0 0 0 0 0 0 0 0 0 0 0 0 0 0 0 0 0 0 0 0 0 0 0 0 0 0 0 0 0 0 0 0 0 0
0 0 0 0 0 0 0 0 0 0 0 0 0 0 0 0 0 0 0 0 0 0 0 0 0 0 0 0 0 0 0 0 0 0 0 0 0 0 0 0 0 0 0
0 0 0 0 0 0 0 0 0 0 0 0 0 0 0 0 0 0 0 0 0 0 0 0 0 0 0 0 0 0 0 0 0 0 0 0 0 0 0 0 0 0 0
0 0 0 0 0 0 0 0 0 0 0 0 0 0 0 0 0 0 0 0 0 0 0 0 0 0 0 0 0 0 0 0 0 0 0 0 0 0 0 0 0 0 0
0 0 0 0 0 0 0 0 0 0 0 0 0 0 0 0 0 0 0 0 0 0 0 0 0 0 0 0 0 0 0 0 0 0 0 0 0 0 0 0 0 0 0
0 0 0 0 0 0 0 0 0 0 0 0 0 0 0 0 0 0 0 0 0 0 0 0 0 0 0 0 0 0 0 0 0 0 0 0 0 0 0 0 0 0 0
0 0 0 0 0 0 0 0 0 0 0 0 0 0 0 0 0 0 0 0 0 0 0 0 0 0 0 0 0 0 0 0 0 0 0 0 0 0 0 0 0 0 0
0 0 0 0 0 0 0 0 0 0 0 0 0 0 0 0 0 0 0 0 0 0 0 0 0 0 0 0 0 0 0 0 0 0 0 0 0 0 0 0 0 0 0
0 0 0 0 0 0 0 0 0 0 0 0 0 0 0 0 0 0 0 0 0 0 0 0 0 0 0 0 0 0 0 0 0 0 0 0 0 0 0 0 0 0 0
0 0 0 0 0 0 0 0 0 0 0 0 0 0 0 0 0 0 0 0 0 0 0 0 0 0 0 0 0 0 0 0 0 0 0 0 0 0 0 0 0 0 0
0 0 0 0 0 0 0 0 0 0 0 0 0 0 0 0 0 0 0 0 0 0 0 0 0 0 0 0 0 0 0 0 0 0 0 0 0 0 0 0 0 0 0
0 0 0 0 0 0 0 0 0 0 0 0 0 0 0 0 0 0 0 0 0 0 0 0 0 0 0 0 0 0 0 0 0 0 0 0 0 0 0 0 0 0 0
0 0 0 0 0 0 0 0 0 0 0 0 0 0 0 0 0 0 0 0 0 0 0 0 0 0 0 0 0 0 0 0 0 0 0 0 0 0 0 0 0 0 0
0 0 0 0 0 0 0 0 0 0 0 0 0 0 0 0 0 0 0 0 0 0 0 0 0 0 0 0 0 0 0 0 0 0 0 0 0 0 0 0 0 0 0
0 0 0 0 0 0 0 0 0 0 0 0 0 0 0 0 0 0 0 0 0 0 0 0 0 0 0 0 0 0 0 0 0 0 0 0 0 0 0 0 0 0 0
0 0 0 0 0 0 0 0 0 0 0 0 0 0 0 0 0 0 0 0 0 0 0 0 0 0 0 0 0 0 0 0 0 0 0 0 0 0 0 0 0 0 0
0 0 0 0 0 0 0 0 0 0 0 0 0 0 0 0 0 0 0 0 0 0 0 0 0 0 0 0 0 0 0 0 0 0 0 0 0 0 0 0 0 0 0
0 0 0 0 0 0 0 0 0 0 0 0 0 0 0 0 0 0 0 0 0 0 0 0 0 0 0 0 0 0 0 0 0 0 0 0 0 0 0 0 0 0 0
0 0 0 0 0 0 0 0 0 0 0 0 0 0 0 0 0 0 0 0 0 0 0 0 0 0 0 0 0 0 0 0 0 0 0 0 0 0 0 0 0 0 0
0 0 0 0 0 0 0 0 0 0 0 0 0 0 0 0 0 0 0 0 0 0 0 0 0 0 0 0 0 0 0 0 0 0 0 0 0 0 0 0 0 0 0
0 0 0 0 0 0 0 0 0 0 0 0 0 0 0 0 0 0 0 0 0 0 0 0 0 0 0 0 0 0 0 0 0 0 0 0 0 0 0 0 0 0 0
0 0 0 0 0 0 0 0 0 0 0 0 0 0 0 0 0 0 0 0 0 0 0 0 0 0 0 0 0 0 0 0 0 0 0 0 0 0 0 0 0 0 0
0 0 0 0 0 0 0 0 0 0 0 0 0 0 0 0 0 0 0 0 0 0 0 0 0 0 0 0 0 0 0 0 0 0 0 0 0 0 0 0 0 0 0
0 0 0 0 0 0 0 0 0 0 0 0 0 0 0 0 0 0 0 0 0 0 0 0 0 0 0 0 0 0 0 0 0 0 0 0 0 0 0 0 0 0 0
Wind_Speed
13 13 13 12 10 11 11 11 11 9 10 10 10 9 8 7 6 6 5 6 5 4 3 4 3 3 2 2 2 2 2 3 6 6 4 4 5 7 10 8 9 9 10
13 13 13 13 12 12 12 11 11 10 10 10 9 9 8 7 7 7 7 6 6 6 5 4 4 3 3 3 2 3 3 4 4 9 6 4 5 8 10 11 10 10 9
13 14 14 14 15 14 13 12 11 11 10 9 9 9 9 8 8 7 7 7 6 6 5 5 5 4 4 3 4 4 3 4 4 6 9 5 5 6 9 10 10 8 10
14 15 16 16 16 14 13 13 12 12 11 11 10 9 8 8 8 8 7 6 6 5 5 5 5 6 6 5 4 5 5 5 5 7 9 8 8 7 7 9 11 8 10
16 16 16 13 12 12 12 12 11 11 11 10 9 8 7 7 8 8 8 7 7 6 6 6 6 8 9 7 6 5 5 5 5 6 8 8 8 8 8 9 11 12 11
17 16 13 13 12 13 13 12 12 11 9 9 9 9 9 8 13 16 11 7 7 7 7 6 6 7 10 13 14 13 10 7 5 5 7 9 10 9 9 10 11 13 13
14 13 13 14 14 13 12 12 13 12 10 10 10 10 10 12 17 17 17 8 7 7 7 6 6 6 7 6 10 14 13 15 15 9 10 10 10 10 12 13 12 13 15
14 13 14 14 13 12 12 13 12 9 10 10 10 10 9 11 17 17 16 9 7 8 8 8 8 7 7 8 7 8 9 9 11 8 8 9 9 10 10 11 10 11 13
16 16 15 15 14 14 14 13 10 9 10 9 8 9 10 11 17 17 16 6 7 9 8 8 9 8 13 15 10 9 9 9 12 15 15 14 17 18 15 7 5 6 10
17 15 14 14 15 15 15 11 8 8 9 8 8 8 9 9 14 17 17 5 7 7 7 8 11 14 15 17 10 8 10 9 6 6 7 9 9 10 14 8 5 6 7
12 11 12 13 14 12 11 8 8 8 7 7 8 7 7 8 12 17 18 8 8 7 7 7 8 16 18 18 16 10 13 10 4 4 3 4 5 5 6 6 6 6 8
12 12 12 12 10 9 10 9 8 9 8 8 6 6 6 6 9 14 18 18 13 8 8 7 8 15 18 19 15 15 17 10 2 1 2 3 4 5 5 6 8 9 10
12 11 10 10 9 9 10 10 8 8 7 7 6 7 6 5 7 14 15 18 19 11 8 12 14 17 17 13 16 17 9 2 2 2 3 4 4 5 6 7 8 9 11
11 10 9 9 8 7 6 7 8 8 8 7 7 7 5 3 4 4 5 6 10 11 8 8 14 17 15 12 8 8 4 3 3 4 4 4 4 4 5 5 7 7 8
8 7 7 7 7 7 6 5 7 5 7 8 6 5 5 5 7 10 6 5 5 7 5 3 3 4 5 5 3 3 3 3 3 3 3 4 4 5 5 5 4 5 6
7 6 5 5 5 5 5 2 5 6 9 10 9 7 6 8 8 10 11 12 13 12 7 5 5 6 7 7 6 6 5 5 4 4 4 4 4 5 5 5 5 6 7
6 6 5 5 5 5 5 6 5 3 5 7 8 8 7 7 7 8 8 9 9 9 6 5 5 5 6 6 5 5 5 4 3 3 4 3 3 4 4 5 6 6 7
5 5 5 5 5 5 5 5 5 5 4 1 1 1 1 0 1 2 4 3 2 2 2 2 3 3 4 4 5 5 4 3 3 3 3 3 3 3 4 5 5 6 7
4 3 3 4 4 4 4 4 4 4 3 3 1 2 3 3 4 4 4 2 0 1 2 2 3 3 3 4 4 4 4 4 4 3 3 4 3 3 4 5 5 8 7
3 5 5 4 4 4 4 4 4 4 4 3 2 1 1 2 1 2 2 1 1 2 2 3 3 3 4 3 3 3 3 4 4 4 4 4 4 4 5 6 5 6 6
4 4 6 5 4 4 4 4 4 4 3 3 2 2 3 2 1 1 1 2 2 3 3 3 3 4 4 3 3 4 5 4 4 4 4 4 4 4 4 5 5 6 6
4 4 4 4 4 4 4 4 4 4 3 3 2 1 1 1 1 1 2 3 3 3 3 3 4 4 4 4 4 4 5 5 5 4 4 4 4 4 4 4 5 5 6
5 5 5 4 4 5 4 3 3 3 2 2 1 1 1 1 2 3 3 4 4 4 4 4 4 4 4 4 4 5 5 5 5 5 5 4 4 4 4 5 6 6 6
4 5 5 4 4 3 3 3 2 2 2 2 2 2 2 3 3 4 4 4 4 4 4 4 5 6 8 5 4 4 5 6 5 5 6 6 6 5 4 5 6 7 8
4 4 3 3 3 3 2 2 2 2 2 2 3 3 3 3 4 4 4 4 5 5 6 6 5 6 8 8 7 6 8 11 9 6 6 6 7 6 6 6 6 7 8
3 3 2 2 2 2 2 2 2 2 3 3 3 4 4 4 4 5 4 4 5 5 6 5 6 8 8 7 8 10 11 12 12 11 8 6 7 7 6 6 8 8 8
Wind_Direction
174 172 167 168 163 159 161 162 161 157 154 156 155 151 148 148 148 146 152 155 154 158 160 163 172 168 165 172 177 192 207 209 263 281 261 299 297 309 315 310 308 305 308
174 171 169 168 164 166 167 166 163 161 161 160 157 155 157 160 163 164 167 171 172 177 182 182 193 187 193 196 200 212 219 220 243 284 293 300 296 305 306 308 308 307 303
173 172 170 172 172 173 171 167 166 164 162 162 162 165 169 172 175 179 177 180 186 190 189 196 202 198 216 214 214 219 224 237 231 265 287 294 294 300 307 304 299 292 299
176 176 178 180 178 175 170 169 170 169 169 171 173 174 176 178 182 183 184 188 194 200 202 206 209 210 221 222 226 225 226 235 240 259 278 291 296 298 297 310 312 308 304
180 183 184 177 172 168 169 170 170 172 175 174 172 176 179 183 191 188 190 192 197 207 214 218 221 226 233 231 231 224 224 234 243 259 278 289 294 307 311 312 307 308 300
185 186 176 171 172 173 173 171 172 175 173 172 181 183 188 198 206 204 197 197 202 209 219 223 228 233 244 252 256 255 245 236 233 245 274 282 292 301 305 305 307 309 308
183 178 174 174 177 178 173 173 179 179 175 182 188 190 199 210 211 211 209 198 204 212 217 221 230 229 228 241 258 265 267 267 261 259 270 278 290 298 302 304 304 304 301
179 179 177 177 180 176 176 183 183 177 184 190 193 197 202 216 218 219 217 206 208 217 219 220 229 235 229 235 240 246 247 250 256 264 266 274 280 289 292 299 305 303 297
184 185 183 180 180 179 185 188 182 179 188 193 192 195 205 219 222 224 222 206 218 226 223 222 229 236 245 248 246 245 252 251 260 265 270 280 290 301 306 307 308 306 302
189 185 180 180 182 187 189 184 177 183 192 190 198 200 207 217 223 227 226 211 223 232 231 233 235 240 248 250 244 240 251 253 245 259 275 291 298 300 302 297 289 287 295
172 167 175 182 186 186 181 174 171 178 180 189 203 206 209 215 226 229 230 217 221 230 234 236 237 248 252 252 248 241 249 255 225 222 248 274 284 284 284 284 285 285 287
158 169 177 181 180 174 173 173 172 176 186 196 203 218 221 216 220 233 236 236 232 225 237 239 240 252 256 257 257 256 260 259 183 207 262 278 282 282 285 290 292 289 282
162 172 173 171 174 171 174 173 170 177 190 198 202 221 228 212 228 237 242 245 247 241 239 245 250 256 260 260 259 262 259 217 189 234 260 271 274 283 294 296 295 291 287
163 165 162 165 168 167 170 172 176 185 193 199 205 218 223 211 208 216 232 246 253 256 262 261 262 261 258 250 250 259 240 198 205 230 251 267 281 288 290 294 298 307 304
149 150 154 161 164 167 172 182 185 191 193 195 203 198 201 224 225 223 214 221 224 238 249 255 247 248 248 247 241 235 228 215 221 230 245 263 277 286 291 298 294 302 294
142 150 155 154 154 156 157 156 210 193 207 216 204 196 212 227 238 240 245 246 246 243 238 238 242 242 244 244 243 240 230 228 230 229 233 246 266 280 290 294 294 292 294
151 154 151 155 159 162 165 172 178 196 212 218 224 226 225 230 240 251 258 262 262 255 240 238 241 243 243 240 238 237 234 225 220 225 235 243 258 271 282 289 293 294 294
135 146 152 158 161 164 169 170 167 168 172 183 327 187 105 34 327 329 329 324 298 299 278 271 267 265 258 247 240 235 233 224 216 221 228 238 245 257 270 277 283 286 294
123 128 132 133 137 141 141 141 145 150 149 139 93 41 28 18 26 14 35 75 25 301 305 299 290 283 273 262 252 244 235 228 221 216 226 233 237 241 257 267 277 285 290
93 110 116 119 120 122 125 130 134 135 134 136 145 145 57 59 48 11 24 22 308 274 274 277 280 276 270 260 251 242 238 235 228 225 230 233 234 237 254 266 272 281 286
88 95 101 103 109 117 121 126 130 133 138 142 153 209 195 149 178 228 271 278 269 267 269 270 270 269 263 256 248 242 241 242 234 230 231 232 231 238 247 259 270 274 278
88 90 93 100 103 104 108 112 118 125 135 143 148 277 303 104 189 247 257 262 263 260 259 261 263 257 248 241 237 236 240 242 239 233 233 233 233 239 248 258 266 275 278
91 96 94 93 98 108 105 106 115 125 138 152 171 207 273 257 249 252 257 261 264 266 265 259 261 263 254 242 232 230 237 242 236 223 224 231 234 237 238 250 262 272 276
89 98 103 103 102 106 115 122 129 144 164 191 218 236 245 249 253 258 261 262 263 263 261 256 255 259 263 257 242 235 238 245 238 226 221 228 235 237 236 246 257 262 271
86 94 102 111 120 127 135 149 171 191 210 227 236 245 251 255 258 260 260 260 263 263 265 261 256 258 261 260 255 248 253 261 255 227 211 217 232 236 239 247 255 262 267
91 100 108 121 139 157 175 195 214 226 234 240 243 246 251 255 258 260 260 259 260 261 263 260 256 258 260 261 261 263 259 256 248 235 214 213 223 232 231 240 249 257 268